OK,141,21,659,141,2014-10-01T01:40:00,0,28071986,186979
OK,141,21,659,141,2014-10-01T01:45:00,0,28072429,186979
OK,141,21,659,141,2014-10-01T01:50:00,0,28072878,186979
OK,141,21,659,141,2014-10-01T01:55:00,0,28073325,186979
OK,141,21,659,141,2014-10-01T02:05:00,0,28074091,186979
OK,141,21,659,141,2014-10-01T02:10:00,0,28074540,186979
OK,141,21,659,141,2014-10-01T02:15:00,0,28074980,186979
OK,141,21,659,141,2014-10-01T02:20:00,0,28075429,186979
OK,141,21,659,141,2014-10-01T02:25:00,0,28075878,186979
OK,141,21,659,141,2014-10-01T02:30:00,0,28076261,186979
OK,141,21,659,141,2014-10-01T02:35:00,0,28076710,186979
OK,141,21,659,141,2014-10-01T02:40:00,0,28077159,186979
OK,141,21,659,141,2014-10-01T02:45:00,0,28077608,186979
OK,141,21,659,141,2014-10-01T02:50:00,0,28078011,186979
OK,141,21,659,141,2014-10-01T02:55:00,0,28078460,186979
OK,141,21,659,141,2014-10-01T03:00:00,0,28078905,186979
OK,141,21,659,141,2014-10-01T03:05:00,0,28079353,186979
OK,141,21,659,141,2014-10-01T03:10:00,0,28079796,186979
OK,141,21,659,141,2014-10-01T03:15:00,0,28080245,186979
OK,141,21,659,141,2014-10-01T03:20:00,0,28080579,186979
OK,65,46,659,65,2014-10-01T03:25:00,1,28081028,186979
OK,65,46,659,65,2014-10-01T03:30:00,0,28081477,186979
OK,65,46,659,65,2014-10-01T03:35:00,0,28081924,186979
OK,65,46,659,65,2014-10-01T03:40:00,0,28082373,186979
OK,65,46,659,65,2014-10-01T03:45:00,0,28082806,186979
OK,65,46,659,65,2014-10-01T03:50:00,0,28083238,186979
OK,65,46,659,65,2014-10-01T03:55:00,0,28083687,186979
OK,65,46,659,65,2014-10-01T04:00:00,0,28084136,186979
OK,65,46,659,65,2014-10-01T04:05:00,0,28084577,186979
OK,65,46,659,65,2014-10-01T04:10:00,0,28085002,186979
OK,65,46,659,65,2014-10-01T04:15:00,0,28085451,186979
OK,65,46,659,65,2014-10-01T04:20:00,0,28085896,186979
OK,65,46,659,65,2014-10-01T04:25:00,0,28086345,186979
OK,65,46,659,65,2014-10-01T04:30:00,0,28086787,186979
OK,65,46,659,65,2014-10-01T04:35:00,0,28087236,186979
OK,65,46,659,65,2014-10-01T04:40:00,0,28087681,186979
OK,65,46,659,65,2014-10-01T04:45:00,0,28088130,186979
OK,112,27,659,112,2014-10-01T04:50:00,1,28088554,186979
OK,112,27,659,112,2014-10-01T04:55:00,1,28089003,186979
OK,107,28,659,107,2014-10-01T05:00:00,1,28089433,186979
OK,107,28,659,107,2014-10-01T05:05:00,1,28089882,186979
OK,107,28,659,107,2014-10-01T05:10:00,0,28090331,186979
OK,107,28,659,107,2014-10-01T05:15:00,0,28090675,186979
OK,106,28,659,106,2014-10-01T05:20:00,1,28091124,186979
OK,106,28,659,106,2014-10-01T05:25:00,1,28091573,186979
OK,106,28,659,106,2014-10-01T05:30:00,0,28091990,186979
OK,92,33,659,92,2014-10-01T05:35:00,1,28092439,186979
OK,79,38,659,79,2014-10-01T05:40:00,2,28092883,186979
OK,67,45,659,67,2014-10-01T05:45:00,1,28093324,186979
OK,67,45,659,67,2014-10-01T05:50:00,0,28093755,186979
OK,67,45,659,67,2014-10-01T05:55:00,0,28094204,186979
OK,90,33,659,90,2014-10-01T06:00:00,1,28094615,186979
OK,90,33,659,90,2014-10-01T06:05:00,1,28095060,186979
OK,90,33,659,90,2014-10-01T06:10:00,0,28095507,186979
OK,90,33,659,90,2014-10-01T06:15:00,0,28095956,186979
OK,90,33,659,90,2014-10-01T06:20:00,0,28096369,186979
OK,90,33,659,90,2014-10-01T06:25:00,0,28096818,186979
OK,151,20,659,151,2014-10-01T06:30:00,1,28097252,186979
OK,151,20,659,151,2014-10-01T06:35:00,1,28097701,186979
OK,151,20,659,151,2014-10-01T06:40:00,0,28098150,186979
OK,122,24,659,122,2014-10-01T06:45:00,1,28098587,186979
OK,122,24,659,122,2014-10-01T06:50:00,3,28099031,186979
OK,125,24,659,125,2014-10-01T06:55:00,2,28099479,186979
OK,87,34,659,87,2014-10-01T07:00:00,0,28099822,186979
OK,171,17,659,171,2014-10-01T07:05:00,2,28100270,186979
OK,122,24,659,122,2014-10-01T07:10:00,3,28100578,186979
OK,122,24,659,122,2014-10-01T07:15:00,2,28101027,186979
OK,116,26,659,116,2014-10-01T07:20:00,1,28101398,186979
OK,116,26,659,116,2014-10-01T07:25:00,0,28101847,186979
OK,116,26,659,116,2014-10-01T07:30:00,0,28102283,186979
OK,116,26,659,116,2014-10-01T07:35:00,0,28102732,186979
OK,116,26,659,116,2014-10-01T07:40:00,0,28103159,186979
OK,116,26,659,116,2014-10-01T07:45:00,0,28103606,186979
OK,116,26,659,116,2014-10-01T07:50:00,0,28104051,186979
OK,116,26,659,116,2014-10-01T07:55:00,0,28104496,186979
OK,116,26,659,116,2014-10-01T08:00:00,0,28104937,186979
OK,164,18,659,164,2014-10-01T08:05:00,1,28105382,186979
OK,121,25,659,121,2014-10-01T08:10:00,2,28105822,186979
OK,85,35,659,85,2014-10-01T08:15:00,3,28106271,186979
OK,98,31,659,98,2014-10-01T08:20:00,2,28106708,186979
OK,85,35,659,85,2014-10-01T08:25:00,0,28107114,186979
OK,110,27,659,110,2014-10-01T08:30:00,1,28107546,186979
OK,96,31,659,96,2014-10-01T08:35:00,2,28107995,186979
OK,112,27,659,112,2014-10-01T08:40:00,4,28108434,186979
OK,126,24,659,126,2014-10-01T08:45:00,3,28108883,186979
OK,98,31,659,98,2014-10-01T08:50:00,0,28109311,186979
OK,174,17,659,174,2014-10-01T08:55:00,1,28109760,186979
OK,174,17,659,174,2014-10-01T09:00:00,1,28110103,186979
OK,174,17,659,174,2014-10-01T09:05:00,0,28110552,186979
OK,174,17,659,174,2014-10-01T09:10:00,0,28110975,186979
OK,174,17,659,174,2014-10-01T09:15:00,0,28111424,186979
OK,174,17,659,174,2014-10-01T09:20:00,0,28111853,186979
OK,174,17,659,174,2014-10-01T09:25:00,0,28112302,186979
OK,174,17,659,174,2014-10-01T09:30:00,0,28112643,186979
OK,174,17,659,174,2014-10-01T09:35:00,0,28113092,186979
OK,174,17,659,174,2014-10-01T09:40:00,0,28113516,186979
OK,174,17,659,174,2014-10-01T09:45:00,0,28113965,186979
OK,174,17,659,174,2014-10-01T09:50:00,0,28114397,186979
OK,179,16,659,179,2014-10-01T09:55:00,1,28114846,186979
OK,179,16,659,179,2014-10-01T10:00:00,1,28115200,186979
OK,179,16,659,179,2014-10-01T10:05:00,0,28115649,186979
OK,265,11,659,265,2014-10-01T10:10:00,1,28116061,186979
OK,265,11,659,265,2014-10-01T10:15:00,0,28116510,186979
OK,265,11,659,265,2014-10-01T10:20:00,0,28116918,186979
OK,163,18,659,163,2014-10-01T10:25:00,1,28117367,186979
OK,163,18,659,163,2014-10-01T10:30:00,1,28117792,186979
OK,163,18,659,163,2014-10-01T10:35:00,0,28118241,186979
OK,163,18,659,163,2014-10-01T10:40:00,0,28118686,186979
OK,163,18,659,163,2014-10-01T10:45:00,0,28119133,186979
OK,163,18,659,163,2014-10-01T10:50:00,0,28119577,186979
OK,163,18,659,163,2014-10-01T10:55:00,0,28120025,186979
OK,163,18,659,163,2014-10-01T11:00:00,0,28120473,186979
OK,144,21,659,144,2014-10-01T11:05:00,1,28120922,186979
OK,144,21,659,144,2014-10-01T11:10:00,1,28121305,186979
OK,144,21,659,144,2014-10-01T11:15:00,0,28121754,186979
OK,111,27,659,111,2014-10-01T11:20:00,1,28122192,186979
OK,93,32,659,93,2014-10-01T11:25:00,2,28122641,186979
OK,76,39,659,76,2014-10-01T11:30:00,1,28123082,186979
OK,76,39,659,76,2014-10-01T11:35:00,0,28123531,186979
OK,76,39,659,76,2014-10-01T11:40:00,0,28123963,186979
OK,109,27,659,109,2014-10-01T11:45:00,1,28124412,186979
OK,109,27,659,109,2014-10-01T11:50:00,1,28124814,186979
OK,126,24,659,126,2014-10-01T11:55:00,2,28125263,186979
OK,126,24,659,126,2014-10-01T12:00:00,2,28125692,186979
OK,126,24,659,126,2014-10-01T12:05:00,0,28126141,186979
OK,139,21,659,139,2014-10-01T12:10:00,1,28126493,186979
OK,139,21,659,139,2014-10-01T12:15:00,1,28126942,186979
OK,129,23,659,129,2014-10-01T12:20:00,2,28127391,186979
OK,129,23,659,129,2014-10-01T12:25:00,2,28127840,186979
OK,115,26,659,115,2014-10-01T12:30:00,1,28128268,186979
OK,120,25,659,120,2014-10-01T12:35:00,2,28128717,186979
OK,126,24,659,126,2014-10-01T12:40:00,0,28129152,186979
OK,125,24,659,125,2014-10-01T12:45:00,1,28129601,186979
OK,115,26,659,115,2014-10-01T12:50:00,2,28130035,186979
OK,106,28,659,106,2014-10-01T12:55:00,1,28130484,186979
OK,106,28,659,106,2014-10-01T13:00:00,0,28130912,186979
OK,159,19,659,159,2014-10-01T13:05:00,1,28131361,186979
OK,159,19,659,159,2014-10-01T13:10:00,0,28131798,186979
OK,159,19,659,159,2014-10-01T13:15:00,0,28132247,186979
OK,219,13,659,219,2014-10-01T13:20:00,2,28132685,186979
OK,219,13,659,219,2014-10-01T13:25:00,2,28133132,186979
OK,219,13,659,219,2014-10-01T13:30:00,0,28133570,186979
OK,219,13,659,219,2014-10-01T13:35:00,0,28134019,186979
OK,115,26,659,115,2014-10-01T13:40:00,1,28134458,186979
OK,115,26,659,115,2014-10-01T13:45:00,0,28134907,186979
OK,115,26,659,115,2014-10-01T13:50:00,0,28135326,186979
OK,140,21,659,140,2014-10-01T13:55:00,1,28135775,186979
OK,132,23,659,132,2014-10-01T14:00:00,2,28136212,186979
OK,125,24,659,125,2014-10-01T14:05:00,1,28136661,186979
OK,125,24,659,125,2014-10-01T14:10:00,0,28137101,186979
OK,100,30,659,100,2014-10-01T14:15:00,1,28137550,186979
OK,110,27,659,110,2014-10-01T14:20:00,2,28137984,186979
OK,153,19,659,153,2014-10-01T14:25:00,2,28138433,186979
OK,186,16,659,186,2014-10-01T14:30:00,1,28138861,186979
OK,186,16,659,186,2014-10-01T14:35:00,0,28139310,186979
OK,186,16,659,186,2014-10-01T14:40:00,0,28139721,186979
OK,186,16,659,186,2014-10-01T14:45:00,0,28140170,186979
OK,186,16,659,186,2014-10-01T14:50:00,0,28140612,186979
OK,186,16,659,186,2014-10-01T14:55:00,0,28141061,186979
OK,186,16,659,186,2014-10-01T15:00:00,0,28141487,186979
OK,186,16,659,186,2014-10-01T15:05:00,0,28141936,186979
OK,186,16,659,186,2014-10-01T15:10:00,0,28142364,186979
OK,186,16,659,186,2014-10-01T15:15:00,0,28142813,186979
OK,186,16,659,186,2014-10-01T15:20:00,0,28143240,186979
OK,186,16,659,186,2014-10-01T15:25:00,0,28143689,186979
OK,186,16,659,186,2014-10-01T15:30:00,0,28144137,186979
OK,186,16,659,186,2014-10-01T15:35:00,0,28144586,186979
OK,186,16,659,186,2014-10-01T15:40:00,0,28145007,186979
OK,107,28,659,107,2014-10-01T15:45:00,1,28145421,186979
OK,107,28,659,107,2014-10-01T15:50:00,1,28145870,186979
OK,107,28,659,107,2014-10-01T15:55:00,0,28146319,186979
OK,107,28,659,107,2014-10-01T16:00:00,0,28146768,186979
OK,102,29,659,102,2014-10-01T16:05:00,2,28147176,186979
OK,116,26,659,116,2014-10-01T16:10:00,3,28147620,186979
OK,152,19,659,152,2014-10-01T16:15:00,1,28148069,186979
OK,152,19,659,152,2014-10-01T16:20:00,0,28148470,186979
OK,141,21,659,141,2014-10-01T16:25:00,1,28148919,186979
OK,141,21,659,141,2014-10-01T16:30:00,0,28149358,186979
OK,141,21,659,141,2014-10-01T16:35:00,0,28149807,186979
OK,141,21,659,141,2014-10-01T16:40:00,0,28150233,186979
OK,141,21,659,141,2014-10-01T16:45:00,0,28150682,186979
OK,141,21,659,141,2014-10-01T16:50:00,0,28151100,186979
OK,141,21,659,141,2014-10-01T16:55:00,0,28151549,186979
OK,141,21,659,141,2014-10-01T17:05:00,0,28151998,186979
OK,141,21,659,141,2014-10-01T17:10:00,0,28152447,186979
OK,141,21,659,141,2014-10-01T17:15:00,0,28152893,186979
OK,96,31,659,96,2014-10-01T17:20:00,1,28153340,186979
OK,96,31,659,96,2014-10-01T17:25:00,1,28153789,186979
OK,96,31,659,96,2014-10-01T17:30:00,0,28154199,186979
OK,96,31,659,96,2014-10-01T17:35:00,0,28154648,186979
OK,99,30,659,99,2014-10-01T17:40:00,2,28155090,186979
OK,99,30,659,99,2014-10-01T17:45:00,2,28155538,186979
OK,99,30,659,99,2014-10-01T17:50:00,0,28155956,186979
OK,99,30,659,99,2014-10-01T17:55:00,0,28156405,186979
OK,142,21,659,142,2014-10-01T18:00:00,1,28156853,186979
OK,184,16,659,184,2014-10-01T18:05:00,1,28157292,186979
OK,146,20,659,146,2014-10-01T18:10:00,1,28157722,186979
OK,146,20,659,146,2014-10-01T18:15:00,1,28158170,186979
OK,146,20,659,146,2014-10-01T18:20:00,0,28158614,186979
OK,146,20,659,146,2014-10-01T18:35:00,0,28159841,186979
OK,146,20,659,146,2014-10-01T18:40:00,0,28160290,186979
OK,146,20,659,146,2014-10-01T18:45:00,0,28160739,186979
OK,146,20,659,146,2014-10-01T18:50:00,0,28161177,186979
OK,146,20,659,146,2014-10-01T18:55:00,0,28161626,186979
OK,146,20,659,146,2014-10-01T19:00:00,0,28162043,186979
OK,146,20,659,146,2014-10-01T19:05:00,0,28162492,186979
OK,146,20,659,146,2014-10-01T19:10:00,0,28162886,186979
OK,146,20,659,146,2014-10-01T19:15:00,0,28163325,186979
OK,146,20,659,146,2014-10-01T19:20:00,0,28163773,186979
OK,146,20,659,146,2014-10-01T19:25:00,0,28164222,186979
OK,146,20,659,146,2014-10-01T19:30:00,0,28164653,186979
OK,146,20,659,146,2014-10-01T19:35:00,0,28165102,186979
OK,110,27,659,110,2014-10-01T19:40:00,1,28165527,186979
OK,110,27,659,110,2014-10-01T19:45:00,0,28165975,186979
OK,110,27,659,110,2014-10-01T19:50:00,0,28166415,186979
OK,110,27,659,110,2014-10-01T19:55:00,0,28166778,186979
OK,170,17,659,170,2014-10-01T20:00:00,1,28167227,186979
OK,170,17,659,170,2014-10-01T20:05:00,1,28167656,186979
OK,170,17,659,170,2014-10-01T20:10:00,0,28168089,186979
OK,170,17,659,170,2014-10-01T20:15:00,0,28168538,186979
OK,170,17,659,170,2014-10-01T20:20:00,0,28168983,186979
OK,170,17,659,170,2014-10-01T20:25:00,0,28169432,186979
OK,170,17,659,170,2014-10-01T20:30:00,0,28169880,186979
OK,170,17,659,170,2014-10-01T20:35:00,0,28170306,186979
OK,170,17,659,170,2014-10-01T20:40:00,0,28170751,186979
OK,170,17,659,170,2014-10-01T20:45:00,0,28171199,186979
OK,170,17,659,170,2014-10-01T20:50:00,0,28171636,186979
OK,170,17,659,170,2014-10-01T20:55:00,0,28172082,186979
OK,170,17,659,170,2014-10-01T21:00:00,0,28172530,186979
OK,170,17,659,170,2014-10-01T21:05:00,0,28172976,186979
OK,170,17,659,170,2014-10-01T21:10:00,0,28173422,186979
OK,170,17,659,170,2014-10-01T21:15:00,0,28173871,186979
OK,170,17,659,170,2014-10-01T21:20:00,0,28174312,186979
OK,170,17,659,170,2014-10-01T21:25:00,0,28174761,186979
OK,170,17,659,170,2014-10-01T21:30:00,0,28175187,186979
OK,141,21,659,141,2014-10-01T21:35:00,3,28175583,186979
OK,144,21,659,144,2014-10-01T21:40:00,1,28176032,186979
OK,144,21,659,144,2014-10-01T21:45:00,0,28176481,186979
OK,144,21,659,144,2014-10-01T21:50:00,0,28176930,186979
OK,144,21,659,144,2014-10-01T21:55:00,0,28177286,186979
OK,144,21,659,144,2014-10-01T22:00:00,0,28177726,186979
OK,144,21,659,144,2014-10-01T22:05:00,0,28178172,186979
OK,144,21,659,144,2014-10-01T22:10:00,0,28178621,186979
OK,144,21,659,144,2014-10-01T22:15:00,0,28179068,186979
OK,144,21,659,144,2014-10-01T22:20:00,0,28179502,186979
OK,144,21,659,144,2014-10-01T22:25:00,0,28179945,186979
OK,144,21,659,144,2014-10-01T22:30:00,0,28180392,186979
OK,144,21,659,144,2014-10-01T22:35:00,0,28180790,186979
OK,144,21,659,144,2014-10-01T22:40:00,0,28181239,186979
OK,144,21,659,144,2014-10-01T22:45:00,0,28181663,186979
OK,144,21,659,144,2014-10-01T22:50:00,0,28182111,186979
OK,144,21,659,144,2014-10-01T22:55:00,0,28182558,186979
OK,144,21,659,144,2014-10-01T23:00:00,0,28183007,186979
OK,144,21,659,144,2014-10-01T23:05:00,0,28183424,186979
OK,144,21,659,144,2014-10-01T23:10:00,0,28183857,186979
OK,144,21,659,144,2014-10-01T23:15:00,0,28184302,186979
OK,144,21,659,144,2014-10-01T23:20:00,0,28184751,186979
OK,144,21,659,144,2014-10-01T23:25:00,0,28185186,186979
OK,144,21,659,144,2014-10-01T23:30:00,0,28185634,186979
OK,144,21,659,144,2014-10-01T23:40:00,0,28186457,186979
OK,144,21,659,144,2014-10-01T23:45:00,0,28187299,186979
OK,144,21,659,144,2014-10-01T23:55:00,0,28187746,186979
OK,144,21,659,144,2014-10-02T00:00:00,0,28188195,186979
OK,144,21,659,144,2014-10-02T00:05:00,0,28188635,186979
OK,144,21,659,144,2014-10-02T00:10:00,0,28189072,186979
OK,144,21,659,144,2014-10-02T00:15:00,0,28189521,186979
OK,144,21,659,144,2014-10-02T00:20:00,0,28189943,186979
OK,144,21,659,144,2014-10-02T00:25:00,0,28190388,186979
OK,144,21,659,144,2014-10-02T00:30:00,0,28190745,186979
OK,144,21,659,144,2014-10-02T00:35:00,0,28191194,186979
OK,144,21,659,144,2014-10-02T00:45:00,0,28191949,186979
OK,144,21,659,144,2014-10-02T00:50:00,0,28192398,186979
OK,144,21,659,144,2014-10-02T00:55:00,0,28192831,186979
OK,144,21,659,144,2014-10-02T01:00:00,0,28193252,186979
OK,144,21,659,144,2014-10-02T01:05:00,0,28193642,186979
OK,144,21,659,144,2014-10-02T01:10:00,0,28194091,186979
OK,144,21,659,144,2014-10-02T01:15:00,0,28194540,186979
OK,144,21,659,144,2014-10-02T01:20:00,0,28194980,186979
OK,144,21,659,144,2014-10-02T01:25:00,0,28195225,186979
OK,144,21,659,144,2014-10-02T01:30:00,0,28195674,186979
OK,144,21,659,144,2014-10-02T01:35:00,0,28196123,186979
OK,144,21,659,144,2014-10-02T01:40:00,0,28196407,186979
OK,144,21,659,144,2014-10-02T01:45:00,0,28196856,186979
OK,144,21,659,144,2014-10-02T01:50:00,0,28197279,186979
OK,144,21,659,144,2014-10-02T01:55:00,0,28197728,186979
OK,144,21,659,144,2014-10-02T02:00:00,0,28198176,186979
OK,144,21,659,144,2014-10-02T02:05:00,0,28198624,186979
OK,144,21,659,144,2014-10-02T02:10:00,0,28199073,186979
OK,144,21,659,144,2014-10-02T02:15:00,0,28199445,186979
OK,144,21,659,144,2014-10-02T02:20:00,0,28199887,186979
OK,144,21,659,144,2014-10-02T02:25:00,0,28200329,186979
OK,144,21,659,144,2014-10-02T02:30:00,0,28200772,186979
OK,144,21,659,144,2014-10-02T02:35:00,0,28201221,186979
OK,144,21,659,144,2014-10-02T02:45:00,0,28201652,186979
OK,144,21,659,144,2014-10-02T02:50:00,0,28202101,186979
OK,144,21,659,144,2014-10-02T02:55:00,0,28202550,186979
OK,144,21,659,144,2014-10-02T03:00:00,0,28202992,186979
OK,144,21,659,144,2014-10-02T03:05:00,0,28203440,186979
OK,116,26,659,116,2014-10-02T03:15:00,0,28203875,186979
OK,116,26,659,116,2014-10-02T03:30:00,0,28204324,186979
OK,116,26,659,116,2014-10-02T03:35:00,0,28204773,186979
OK,116,26,659,116,2014-10-02T03:40:00,0,28205222,186979
OK,112,27,659,112,2014-10-02T03:45:00,0,28205650,186979
OK,112,27,659,112,2014-10-02T03:50:00,0,28206079,186979
OK,112,27,659,112,2014-10-02T03:55:00,0,28206480,186979
OK,112,27,659,112,2014-10-02T04:00:00,0,28206929,186979
OK,112,27,659,112,2014-10-02T04:05:00,0,28207378,186979
OK,112,27,659,112,2014-10-02T04:10:00,0,28207797,186979
OK,112,27,659,112,2014-10-02T04:15:00,0,28208246,186979
OK,112,27,659,112,2014-10-02T04:20:00,0,28208673,186979
OK,112,27,659,112,2014-10-02T04:25:00,0,28209122,186979
OK,114,26,659,114,2014-10-02T04:30:00,1,28209560,186979
OK,114,26,659,114,2014-10-02T04:35:00,1,28210009,186979
OK,114,26,659,114,2014-10-02T04:40:00,0,28210432,186979
OK,114,26,659,114,2014-10-02T04:45:00,0,28210881,186979
OK,114,26,659,114,2014-10-02T04:50:00,0,28211306,186979
OK,114,26,659,114,2014-10-02T04:55:00,0,28211750,186979
OK,114,26,659,114,2014-10-02T05:00:00,0,28212128,186979
OK,114,26,659,114,2014-10-02T05:05:00,0,28212577,186979
OK,114,26,659,114,2014-10-02T05:10:00,0,28213006,186979
OK,112,27,659,112,2014-10-02T05:15:00,0,28213455,186979
OK,112,27,659,112,2014-10-02T05:20:00,0,28213893,186979
OK,112,27,659,112,2014-10-02T05:25:00,0,28214342,186979
OK,112,27,659,112,2014-10-02T05:30:00,0,28214755,186979
OK,112,27,659,112,2014-10-02T05:35:00,0,28215204,186979
OK,112,27,659,112,2014-10-02T05:40:00,0,28215620,186979
OK,112,27,659,112,2014-10-02T05:45:00,0,28216069,186979
OK,112,27,659,112,2014-10-02T05:50:00,0,28216408,186979
OK,101,30,659,101,2014-10-02T05:55:00,2,28216848,186979
OK,74,41,659,74,2014-10-02T06:00:00,2,28217295,186979
OK,64,47,659,64,2014-10-02T06:05:00,1,28217744,186979
OK,64,47,659,64,2014-10-02T06:10:00,0,28218183,186979
OK,237,12,659,237,2014-10-02T06:15:00,1,28218632,186979
OK,237,12,659,237,2014-10-02T06:20:00,1,28219052,186979
OK,237,12,659,237,2014-10-02T06:25:00,0,28219501,186979
OK,142,21,659,142,2014-10-02T06:30:00,2,28219874,186979
OK,142,21,659,142,2014-10-02T06:35:00,2,28220323,186979
OK,514,5,659,514,2014-10-02T06:40:00,1,28220757,186979
OK,332,9,659,332,2014-10-02T06:45:00,2,28221206,186979
OK,123,24,659,123,2014-10-02T07:00:00,3,28221873,186979
OK,129,23,659,129,2014-10-02T07:05:00,4,28222018,186979
OK,135,22,659,135,2014-10-02T07:10:00,1,28222467,186979
OK,135,22,659,135,2014-10-02T07:15:00,0,28222916,186979
OK,135,22,659,135,2014-10-02T07:20:00,0,28223347,186979
OK,141,21,659,141,2014-10-02T07:25:00,1,28223782,186979
OK,141,21,659,141,2014-10-02T07:30:00,0,28224229,186979
OK,141,21,659,141,2014-10-02T07:35:00,0,28224585,186979
OK,141,21,659,141,2014-10-02T07:40:00,0,28225034,186979
OK,141,21,659,141,2014-10-02T07:45:00,0,28225448,186979
OK,141,21,659,141,2014-10-02T07:50:00,0,28225805,186979
OK,141,21,659,141,2014-10-02T07:55:00,0,28226254,186979
OK,141,21,659,141,2014-10-02T08:00:00,0,28226695,186979
OK,141,21,659,141,2014-10-02T08:05:00,0,28227144,186979
OK,141,21,659,141,2014-10-02T08:10:00,0,28227559,186979
OK,74,41,659,74,2014-10-02T08:15:00,3,28228008,186979
OK,132,23,659,132,2014-10-02T08:20:00,1,28228367,186979
OK,132,23,659,132,2014-10-02T08:25:00,0,28228816,186979
OK,132,23,659,132,2014-10-02T08:30:00,0,28229226,186979
OK,106,28,659,106,2014-10-02T08:35:00,1,28229675,186979
OK,106,28,659,106,2014-10-02T08:40:00,0,28230025,186979
OK,106,28,659,106,2014-10-02T08:45:00,0,28230474,186979
OK,106,28,659,106,2014-10-02T08:50:00,0,28230840,186979
OK,106,28,659,106,2014-10-02T08:55:00,0,28231287,186979
OK,173,17,659,173,2014-10-02T09:00:00,1,28231712,186979
OK,173,17,659,173,2014-10-02T09:05:00,0,28232160,186979
OK,190,15,659,190,2014-10-02T09:15:00,1,28232503,186979
OK,190,15,659,190,2014-10-02T09:20:00,1,28232952,186979
OK,146,20,659,146,2014-10-02T09:25:00,1,28233401,186979
OK,146,20,659,146,2014-10-02T09:30:00,0,28233825,186979
OK,146,20,659,146,2014-10-02T09:35:00,0,28234274,186979
OK,146,20,659,146,2014-10-02T09:40:00,0,28234607,186979
OK,146,20,659,146,2014-10-02T09:45:00,0,28235056,186979
OK,146,20,659,146,2014-10-02T09:50:00,0,28235483,186979
OK,146,20,659,146,2014-10-02T09:55:00,0,28235932,186979
OK,146,20,659,146,2014-10-02T10:00:00,0,28236375,186979
OK,146,20,659,146,2014-10-02T10:05:00,0,28236822,186979
OK,151,20,659,151,2014-10-02T10:10:00,1,28237224,186979
OK,151,20,659,151,2014-10-02T10:15:00,1,28237672,186979
OK,151,20,659,151,2014-10-02T10:20:00,0,28238121,186979
OK,151,20,659,151,2014-10-02T10:25:00,0,28238568,186979
OK,151,20,659,151,2014-10-02T10:30:00,0,28239009,186979
OK,103,29,659,103,2014-10-02T10:35:00,2,28239458,186979
OK,117,25,659,117,2014-10-02T10:40:00,2,28239888,186979
OK,115,26,659,115,2014-10-02T10:45:00,3,28240337,186979
OK,101,30,659,101,2014-10-02T10:50:00,0,28240781,186979
OK,155,19,659,155,2014-10-02T10:55:00,1,28241230,186979
OK,155,19,659,155,2014-10-02T11:00:00,0,28241662,186979
OK,155,19,659,155,2014-10-02T11:05:00,0,28242110,186979
OK,155,19,659,155,2014-10-02T11:10:00,0,28242506,186979
OK,155,19,659,155,2014-10-02T11:15:00,0,28242955,186979
OK,155,19,659,155,2014-10-02T11:20:00,0,28243404,186979
OK,155,19,659,155,2014-10-02T11:25:00,0,28243729,186979
OK,155,19,659,155,2014-10-02T11:30:00,0,28244167,186979
OK,145,20,659,145,2014-10-02T11:35:00,2,28244596,186979
OK,141,21,659,141,2014-10-02T11:40:00,1,28245045,186979
OK,141,21,659,141,2014-10-02T11:45:00,0,28245494,186979
OK,141,21,659,141,2014-10-02T11:50:00,0,28245900,186979
OK,141,21,659,141,2014-10-02T11:55:00,0,28246349,186979
OK,141,21,659,141,2014-10-02T12:00:00,0,28246786,186979
OK,141,21,659,141,2014-10-02T12:05:00,0,28247234,186979
OK,141,21,659,141,2014-10-02T12:10:00,0,28247681,186979
OK,122,24,659,122,2014-10-02T12:15:00,1,28248111,186979
OK,122,24,659,122,2014-10-02T12:20:00,0,28248560,186979
OK,117,25,659,117,2014-10-02T12:25:00,3,28249007,186979
OK,117,25,659,117,2014-10-02T12:30:00,1,28249435,186979
OK,141,21,659,141,2014-10-02T12:35:00,2,28249879,186979
OK,153,19,659,153,2014-10-02T12:40:00,0,28250267,186979
OK,95,31,659,95,2014-10-02T12:45:00,1,28250696,186979
OK,93,32,659,93,2014-10-02T13:20:00,3,28251556,186979
OK,129,23,659,129,2014-10-02T13:30:00,1,28252021,186979
OK,129,23,659,129,2014-10-02T13:35:00,1,28252158,186979
OK,129,23,659,129,2014-10-02T13:40:00,0,28252605,186979
OK,81,37,659,81,2014-10-02T13:45:00,1,28253047,186979
OK,81,37,659,81,2014-10-02T13:50:00,0,28253464,186979
OK,132,23,659,132,2014-10-02T13:55:00,1,28253913,186979
OK,60,50,659,60,2014-10-02T14:10:00,1,28254644,186979
OK,88,34,659,88,2014-10-02T14:15:00,2,28254767,186979
OK,145,20,659,145,2014-10-02T14:20:00,1,28255216,186979
OK,145,20,659,145,2014-10-02T14:25:00,0,28255665,186979
OK,145,20,659,145,2014-10-02T14:30:00,0,28256093,186979
OK,145,20,659,145,2014-10-02T14:35:00,0,28256542,186979
OK,145,20,659,145,2014-10-02T14:40:00,0,28256970,186979
OK,145,20,659,145,2014-10-02T14:45:00,0,28257419,186979